Tracking 26544 objects as of 9-Dec-2022
HD Live streaming from Space Station
objects crossing your sky now

STARLINK-4670

Track STARLINK-4670 now!
10-day predictions
STARLINK-4670 is classified as:


NORAD ID: 53744
Int'l Code: 2022-107AW
Perigee: 546.0 km
Apogee: 547.7 km
Inclination: 53.2 °
Period: 95.4 minutes
Semi major axis: 6917 km
RCS: Unknown
Launch date: September 5, 2022
Source: United States (US)
Launch site: AIR FORCE EASTERN TEST RANGE (AFETR)
aabbcc
Your satellite tracking list
Your tracking list is empty




NASA's NSSDC Master Catalog

Two Line Element Set (TLE):
1 53744U 22107AW  22342.86508856  .00002668  00000-0  18564-3 0  9993
2 53744  53.2160 191.9407 0001250  51.2671 308.8432 15.08839768 15428
Source of the keplerian elements: AFSPC